This is the latest recevied weather packets stored in our database for station/object K5KHP. If no packets are shown the sender has not sent any weather packets the latest 10 day(s).
| Time | Temp. | Humidity | Pressure | Rain* | Wind** | Luminosity | Snow |
|---|---|---|---|---|---|---|---|
| 1778166784 | 17.22° C | 82% | 1016 hPa | 0 mm | - | 184 W/m² | - |
| 1778166481 | 17.22° C | 81% | 1016.3 hPa | 0 mm | - | 172 W/m² | - |
| 1778166178 | 16.67° C | 83% | 1016 hPa | 0 mm | - | 154 W/m² | - |
| 1778165874 | 16.11° C | 84% | 1016 hPa | 0 mm | - | 148 W/m² | - |
| 1778165570 | 16.11° C | 85% | 1016 hPa | 0 mm | - | 139 W/m² | - |
| 1778165267 | 15.56° C | 85% | 1016.1 hPa | 0 mm | - | 130 W/m² | - |
| 1778164965 | 15.56° C | 85% | 1016.1 hPa | 0 mm | - | 117 W/m² | - |
| 1778164661 | 15.56° C | 84% | 1016 hPa | 0 mm | - | 111 W/m² | - |
| 1778164359 | 15° C | 86% | 1015.9 hPa | 0 mm | - | 101 W/m² | - |
| 1778164055 | 14.44° C | 88% | 1015.9 hPa | 0 mm | - | 80 W/m² | - |
| 1778163751 | 13.89° C | 88% | 1015.9 hPa | 0 mm | - | 67 W/m² | - |
| 1778163448 | 13.89° C | 87% | 1015.9 hPa | 0 mm | - | 58 W/m² | - |
| 1778163145 | 13.33° C | 88% | 1015.7 hPa | 0 mm | - | 52 W/m² | - |
| 1778162841 | 13.33° C | 89% | 1015.7 hPa | 0 mm | - | 46 W/m² | - |
| 1778162539 | 12.78° C | 89% | 1015.8 hPa | 0 mm | - | 41 W/m² | - |
| 1778162235 | 12.78° C | 90% | 1015.8 hPa | 0 mm | - | 37 W/m² | - |
| 1778161933 | 12.22° C | 91% | 1015.7 hPa | 0 mm | - | 33 W/m² | - |
| 1778161629 | 12.22° C | 92% | 1015.7 hPa | 0 mm | - | 29 W/m² | - |
| 1778161325 | 11.67° C | 92% | 1015.6 hPa | 0 mm | - | 25 W/m² | - |
| 1778161021 | 11.67° C | 93% | 1015.4 hPa | 0 mm | - | 20 W/m² | - |
| 1778160718 | 11.67° C | 94% | 1015.6 hPa | 0 mm | - | 16 W/m² | - |
| 1778160415 | 11.11° C | 94% | 1015.4 hPa | 0 mm | - | 11 W/m² | - |
| 1778160112 | 11.11° C | 94% | 1015.4 hPa | 0 mm | - | 9 W/m² | - |
| 1778159809 | 11.11° C | 94% | 1015.5 hPa | 0 mm | - | 7 W/m² | - |
| 1778159506 | 11.11° C | 94% | 1015.5 hPa | 0 mm | - | 4 W/m² | - |
* Rain latest hour (hover to see other rain measurements)
** Current wind speed in m/s (hover to see current wind gust speed)